Hillsdale, MI

10:55 AM EDT on September 21, 2017 (GMT -0400)
Hillsdale Municipal

Weather History for KJYM - March, 2013

Change the Weather History Date:

Sunday, March 17, 2013

  Actual Average Record
Temperature  
Mean Temperature 28 °F -  
Max Temperature 32 °F 44 °F 75 °F (2012)
Min Temperature 24 °F 22 °F 5 °F (1949)
Degree Days  
Heating Degree Days 37    
Moisture  
Dew Point 18 °F    
Average Humidity 69    
Maximum Humidity 84    
Minimum Humidity 54    
Precipitation  
Precipitation 0.00 in - - ()
Sea Level Pressure  
Sea Level Pressure 30.13 in    
Wind  
Wind Speed 8 mph (ENE)    
Max Wind Speed 16 mph    
Max Gust Speed 22 mph    
Visibility 10 miles    
Events      
Averages and records for this station are not official NWS values.
T = Trace of Precipitation, MM = Missing Value Source: NWS Daily Summary

Daily Weather History Graph

Daily Weather History Graph

Search for Another Location

Airport or City:

Trip Planner

Search our weather history database for the weather conditions in past years. The results will help you decide how hot, cold, wet, or windy it might be!

Date:

Astronomy

Mar. 17, 2013 Rise Set
Actual Time 7:46 AM EDT 7:47 PM EDT
Civil Twilight 7:18 AM EDT 8:15 PM EDT
Nautical Twilight 6:46 AM EDT 8:47 PM EDT
Astronomical Twilight 6:13 AM EDT 9:20 PM EDT
Moon 10:53 AM EDT (3/17) 12:59 AM EDT (3/17)
Length of Visible Light 12h 56m
Length of Day
12h 01m
Waxing Crescent, 31% of the Moon is Illuminated
Mar 17
Waxing Crescent
Mar 19
First Quarter
Mar 27
Full
Apr 3
Last Quarter
Apr 10
New

Hourly Weather History & Observations

Time (EDT) Temp. Windchill Dew Point Humidity Pressure Visibility Wind Dir Wind Speed Gust Speed Precip Events Conditions
12:14 AM 29.7 °F - 24.6 °F 81% 30.02 in 10.0 mi Calm Calm - N/A   Overcast
12:35 AM 29.7 °F - 25.0 °F 83% 30.02 in 10.0 mi Calm Calm - N/A   Overcast
12:54 AM 29.8 °F 23.9 °F 25.2 °F 83% 30.02 in 10.0 mi West 5.8 mph - N/A   Overcast
1:15 AM 29.8 °F 20.3 °F 25.5 °F 84% 30.03 in 10.0 mi WNW 11.5 mph - N/A   Overcast
1:35 AM 28.8 °F 18.4 °F 23.5 °F 81% 30.04 in 10.0 mi WNW 12.7 mph 17.3 mph N/A   Overcast
1:54 AM 28.4 °F 19.1 °F 23.4 °F 81% 30.04 in 10.0 mi NW 10.4 mph - N/A   Overcast
2:15 AM 27.9 °F 18.4 °F 22.6 °F 81% 30.05 in 10.0 mi NW 10.4 mph 16.1 mph N/A   Overcast
2:34 AM 27.7 °F 17.1 °F 22.1 °F 80% 30.05 in 10.0 mi NNW 12.7 mph 19.6 mph N/A   Overcast
2:54 AM 27.3 °F 17.1 °F 21.7 °F 80% 30.06 in 10.0 mi NNW 11.5 mph - N/A   Overcast
3:15 AM 27.0 °F 14.7 °F 20.8 °F 78% 30.06 in 10.0 mi NNW 16.1 mph 19.6 mph N/A   Overcast
3:34 AM 26.4 °F 15.5 °F 19.4 °F 75% 30.07 in 10.0 mi NNW 12.7 mph 19.6 mph N/A   Mostly Cloudy
3:55 AM 26.1 °F 16.8 °F 19.0 °F 75% 30.07 in 10.0 mi NNW 9.2 mph - N/A   Scattered Clouds
4:14 AM 26.1 °F 20.5 °F 19.0 °F 75% 30.07 in 10.0 mi North 4.6 mph - N/A   Mostly Cloudy
4:34 AM 26.1 °F 18.4 °F 19.6 °F 76% 30.06 in 10.0 mi North 6.9 mph - N/A   Overcast
4:55 AM 26.2 °F 19.6 °F 19.9 °F 77% 30.06 in 10.0 mi NNW 5.8 mph - N/A   Overcast
5:14 AM 26.4 °F 18.9 °F 19.9 °F 77% 30.06 in 10.0 mi North 6.9 mph - N/A   Overcast
5:34 AM 26.4 °F 22.4 °F 19.9 °F 77% 30.07 in 10.0 mi NNW 3.5 mph - N/A   Overcast
5:55 AM 26.4 °F 18.9 °F 19.9 °F 77% 30.07 in 10.0 mi North 6.9 mph - N/A   Overcast
6:14 AM 26.4 °F 18.9 °F 19.2 °F 74% 30.08 in 10.0 mi North 6.9 mph - N/A   Overcast
6:34 AM 26.4 °F 17.3 °F 19.4 °F 75% 30.09 in 10.0 mi North 9.2 mph - N/A   Overcast
6:55 AM 26.4 °F 16.6 °F 19.4 °F 75% 30.10 in 10.0 mi North 10.4 mph - N/A   Overcast
7:14 AM 26.2 °F 16.4 °F 19.2 °F 75% 30.11 in 10.0 mi North 10.4 mph 16.1 mph N/A   Overcast
7:35 AM 25.9 °F 17.4 °F 19.2 °F 76% 30.12 in 10.0 mi North 8.1 mph - N/A   Scattered Clouds
7:55 AM 25.5 °F 18.7 °F 18.7 °F 75% 30.14 in 10.0 mi NNE 5.8 mph - N/A   Clear
8:14 AM 25.2 °F 16.5 °F 18.3 °F 75% 30.15 in 10.0 mi NNE 8.1 mph - N/A   Clear
8:35 AM 25.2 °F 16.5 °F 18.1 °F 75% 30.16 in 10.0 mi NNE 8.1 mph - N/A   Scattered Clouds
8:55 AM 24.6 °F 14.4 °F 17.1 °F 73% 30.17 in 10.0 mi NNE 10.4 mph 18.4 mph N/A   Mostly Cloudy
9:14 AM 24.6 °F 15.1 °F 16.9 °F 72% 30.18 in 10.0 mi NNE 9.2 mph - N/A   Scattered Clouds
9:35 AM 24.6 °F 13.2 °F 16.5 °F 71% 30.19 in 10.0 mi ENE 12.7 mph - N/A   Scattered Clouds
9:54 AM 24.4 °F 13.5 °F 15.8 °F 70% 30.20 in 10.0 mi ENE 11.5 mph - N/A   Scattered Clouds
10:14 AM 24.8 °F 14.0 °F 14.5 °F 65% 30.20 in 10.0 mi NNE 11.5 mph - N/A   Clear
10:35 AM 25.2 °F 15.1 °F 15.1 °F 66% 30.19 in 10.0 mi NE 10.4 mph - N/A   Clear
10:54 AM 25.2 °F 15.7 °F 14.7 °F 65% 30.20 in 10.0 mi ENE 9.2 mph - N/A   Clear
11:14 AM 25.3 °F 15.3 °F 14.4 °F 63% 30.20 in 10.0 mi NE 10.4 mph 16.1 mph N/A   Clear
11:35 AM 26.1 °F 15.0 °F 15.1 °F 63% 30.20 in 10.0 mi ENE 12.7 mph - N/A   Clear
11:54 AM 26.2 °F 16.4 °F 14.7 °F 62% 30.20 in 10.0 mi NE 10.4 mph - N/A   Clear
12:15 PM 27.0 °F 17.3 °F 15.4 °F 62% 30.20 in 10.0 mi NE 10.4 mph - N/A   Clear
12:35 PM 27.1 °F 18.9 °F 16.2 °F 63% 30.20 in 10.0 mi ENE 8.1 mph - N/A   Scattered Clouds
12:54 PM 27.7 °F 20.4 °F 16.5 °F 63% 30.20 in 10.0 mi ENE 6.9 mph - N/A   Scattered Clouds
1:15 PM 27.9 °F 17.8 °F 16.9 °F 63% 30.20 in 10.0 mi ENE 11.5 mph - N/A   Scattered Clouds
1:34 PM 28.0 °F 19.3 °F 16.5 °F 62% 30.19 in 10.0 mi East 9.2 mph - N/A   Scattered Clouds
1:54 PM 28.2 °F 20.2 °F 15.8 °F 60% 30.19 in 10.0 mi East 8.1 mph - N/A   Scattered Clouds
2:14 PM 28.6 °F 19.9 °F 15.6 °F 58% 30.19 in 10.0 mi East 9.2 mph - N/A   Clear
2:34 PM 29.5 °F 23.4 °F 17.1 °F 60% 30.19 in 10.0 mi East 5.8 mph - N/A   Clear
2:55 PM 29.8 °F 23.0 °F 17.2 °F 59% 30.18 in 10.0 mi East 6.9 mph - N/A   Clear
3:14 PM 29.8 °F 22.2 °F 16.9 °F 59% 30.18 in 10.0 mi ENE 8.1 mph - N/A   Scattered Clouds
3:34 PM 30.4 °F 22.2 °F 17.4 °F 59% 30.17 in 10.0 mi ESE 9.2 mph - N/A   Scattered Clouds
3:55 PM 30.9 °F 23.5 °F 17.2 °F 57% 30.16 in 10.0 mi East 8.1 mph - N/A   Scattered Clouds
4:14 PM 30.9 °F 22.2 °F 17.2 °F 57% 30.16 in 10.0 mi East 10.4 mph 16.1 mph N/A   Clear
4:34 PM 31.5 °F 25.8 °F 17.1 °F 55% 30.16 in 10.0 mi East 5.8 mph 11.5 mph N/A   Scattered Clouds
4:55 PM 31.6 °F 23.1 °F 17.6 °F 56% 30.15 in 10.0 mi East 10.4 mph 17.3 mph N/A   Mostly Cloudy
5:14 PM 31.6 °F 21.2 °F 18.0 °F 57% 30.15 in 10.0 mi East 15.0 mph - N/A   Scattered Clouds
5:35 PM 30.9 °F 22.2 °F 17.2 °F 57% 30.15 in 10.0 mi East 10.4 mph - N/A   Clear
5:55 PM 32.2 °F 23.2 °F 18.3 °F 57% 30.14 in 10.0 mi East 11.5 mph 18.4 mph N/A   Scattered Clouds
6:14 PM 31.5 °F 21.4 °F 16.7 °F 54% 30.14 in 10.0 mi East 13.8 mph - N/A   Scattered Clouds
6:35 PM 30.9 °F 21.7 °F 17.2 °F 57% 30.14 in 10.0 mi ESE 11.5 mph - N/A   Scattered Clouds
6:54 PM 30.2 °F 20.2 °F 18.9 °F 63% 30.14 in 10.0 mi SE 12.7 mph 17.3 mph N/A   Mostly Cloudy
7:14 PM 29.1 °F 20.0 °F 18.9 °F 66% 30.13 in 10.0 mi East 10.4 mph 19.6 mph N/A   Mostly Cloudy
7:35 PM 28.8 °F 19.5 °F 18.7 °F 66% 30.16 in 10.0 mi ESE 10.4 mph 17.3 mph N/A   Overcast
7:54 PM 28.6 °F 18.2 °F 18.5 °F 66% 30.15 in 10.0 mi ESE 12.7 mph - N/A   Overcast
8:14 PM 28.0 °F 19.3 °F 18.7 °F 68% 30.16 in 10.0 mi East 9.2 mph - N/A   Overcast
8:35 PM 28.0 °F 18.6 °F 18.5 °F 67% 30.17 in 10.0 mi ESE 10.4 mph - N/A   Overcast
8:54 PM 27.9 °F 16.8 °F 18.1 °F 67% 30.16 in 10.0 mi ESE 13.8 mph 19.6 mph N/A   Overcast
9:15 PM 27.3 °F 16.1 °F 17.2 °F 66% 30.16 in 10.0 mi East 13.8 mph 19.6 mph N/A   Mostly Cloudy
9:34 PM 27.3 °F 15.6 °F 18.0 °F 68% 30.16 in 10.0 mi ESE 15.0 mph - N/A   Mostly Cloudy
9:54 PM 27.0 °F 15.6 °F 18.1 °F 69% 30.15 in 10.0 mi East 13.8 mph 19.6 mph N/A   Overcast
10:15 PM 27.0 °F 15.6 °F 18.5 °F 70% 30.14 in 10.0 mi East 13.8 mph 18.4 mph N/A   Overcast
10:34 PM 27.0 °F 15.2 °F 18.7 °F 71% 30.13 in 10.0 mi East 15.0 mph 21.9 mph N/A   Mostly Cloudy
10:54 PM 26.4 °F 14.5 °F 18.1 °F 71% 30.12 in 10.0 mi ESE 15.0 mph - N/A   Scattered Clouds
11:15 PM 26.1 °F 14.0 °F 18.3 °F 73% 30.10 in 10.0 mi East 15.0 mph - N/A   Clear
11:34 PM 26.1 °F 15.6 °F 18.5 °F 73% 30.10 in 10.0 mi East 11.5 mph - N/A   Clear
11:54 PM 25.9 °F 14.3 °F 18.7 °F 74% 30.11 in 10.0 mi East 13.8 mph - N/A   Clear